Regional Weather Roundup
Issued by NWS

Home | Current Version | Previous Version | Text Only | Print | Product List | Glossary Off
Versions: 1 2 3 4 5 6 7 8 9 10 11 12 13 14 15 16 17 18 19 20 21 22 23 24 25 26 27 28 29 30 31 32 33 34 35 36 37 38 39 40 41 42 43 44 45 46 47 48 49 50

448
ASUS45 KPSR 231810
RWRAZ

ARIZONA HOURLY REGIONAL WEATHER ROUNDUP
NATIONAL WEATHER SERVICE PHOENIX AZ
1100 AM MST TUE JAN 23 2018

NOTE: FAIR INDICATES FEW OR NO CLOUDS BELOW 12,000 FEET WITH NO
SIGNIFICANT WEATHER AND/OR OBSTRUCTIONS TO VISIBILITY.

AZZ001>003-036-231900-
NORTHWEST ARIZONA

CITY           SKY/WX    TMP DP  RH WIND       PRES   REMARKS
BULLHEAD CITY  SUNNY     57  21  24 N21G33    30.27S
KINGMAN        SUNNY    N/A N/A N/A N13       30.30R
$$

AZZ004>008-015-016-018-231900-
NORTH CENTRAL ARIZONA

CITY           SKY/WX    TMP DP  RH WIND       PRES   REMARKS
GRAND CANYON   SUNNY     35  12  38 NE14G24   30.34R WCI  26
6HR MIN TEMP:  23; 6HR MAX TEMP:  35;

WILLIAMS       SUNNY     39   7  26 VRB7      30.27R WCI  34
PRESCOTT       SUNNY     39   9  29 N6        30.29R WCI  35
6HR MIN TEMP:  19; 6HR MAX TEMP:  39;

FLAGSTAFF      SUNNY     32   6  33 E15G22    30.30R WCI  22
6HR MIN TEMP:  14; 6HR MAX TEMP:  32;

PAYSON         SUNNY     45   7  21 NE9       30.24S
PAGE           SUNNY     36  13  38 CALM      30.40R
6HR MIN TEMP:  25; 6HR MAX TEMP:  36;

$$

AZZ009>014-017-231900-
NORTHEAST ARIZONA

CITY           SKY/WX    TMP DP  RH WIND       PRES   REMARKS
WINSLOW        SUNNY     31  10  41 CALM      30.38R
6HR MIN TEMP:   7; 6HR MAX TEMP:  31;

SAINT JOHNS    SUNNY     31  11  43 VRB3      30.31S
6HR MIN TEMP:   6; 6HR MAX TEMP:  31;

WINDOW ROCK    SUNNY     30  10  43 CALM      30.32R
6HR MIN TEMP:   1; 6HR MAX TEMP:  30;

SHOW LOW       SUNNY     28  16  59 N7        30.32R WCI  21
$$

AZZ540-542>544-546-548-231900-
GREATER PHOENIX AREA

CITY           SKY/WX    TMP DP  RH WIND       PRES   REMARKS
PHOENIX        SUNNY     60  12  15 E12       30.18S
6HR MIN TEMP:  40; 6HR MAX TEMP:  60;

BUCKEYE        SUNNY     54  19  26 CALM      30.21S
GLENDALE       SUNNY     55  21  26 CALM      30.22R
LUKE AFB       SUNNY     56  17  21 SE5       30.19S
6HR MIN TEMP:  35; 6HR MAX TEMP:  56;

DEER VALLEY    SUNNY     57   9  14 VRB3      30.19R
6HR MIN TEMP:  40; 6HR MAX TEMP:  58;

SCOTTSDALE     SUNNY     57  18  21 SW6       30.20S
6HR MIN TEMP:  35; 6HR MAX TEMP:  57;

MESA-GATEWAY   SUNNY     54  23  30 SW7       30.19F
CHANDLER       SUNNY     54  21  28 CALM      30.19F
$$

AZZ539-553-231900-
SOUTHWEST MARICOPA COUNTY AND PINAL COUNTY

CITY           SKY/WX    TMP DP  RH WIND       PRES   REMARKS
CASA GRANDE    NOT AVBL
GILA BEND      SUNNY     55  18  23 N9        30.19R
6HR MIN TEMP:  30; 6HR MAX TEMP:  55;

$$

AZZ503-504-507>509-231900-
SOUTHEAST ARIZONA

CITY           SKY/WX    TMP DP  RH WIND       PRES   REMARKS
TUCSON         SUNNY     53  14  21 N3        30.17S
6HR MIN TEMP:  30; 6HR MAX TEMP:  53;

DAVIS-MONTHAN  SUNNY     51  14  22 CALM      30.15S
6HR MIN TEMP:  27; 6HR MAX TEMP:  51;

RYAN FIELD     SUNNY     55  12  18 NE6       30.18S
NOGALES        SUNNY     55   5  13 VRB3      30.14S
6HR MIN TEMP:  26; 6HR MAX TEMP:  55;

SIERRA VISTA   SUNNY     49   4  15 NE7       30.21R
6HR MIN TEMP:  27; 6HR MAX TEMP:  49;

DOUGLAS        SUNNY     50   4  15 NW10      30.20S
6HR MIN TEMP:  16; 6HR MAX TEMP:  50;

SAFFORD        SUNNY     48  10  21 SE9       30.25S
6HR MIN TEMP:  19; 6HR MAX TEMP:  48;

$$

AZZ532-231900-
SOUTHWEST ARIZONA

CITY           SKY/WX    TMP DP  RH WIND       PRES   REMARKS
YUMA           SUNNY     62  22  21 N10       30.21R
6HR MIN TEMP:  50; 6HR MAX TEMP:  62;

$$

CAZ041-043-047-048-061-525>527-560>570-231900-
SOUTHERN CALIFORNIA

CITY           SKY/WX    TMP DP  RH WIND       PRES   REMARKS
DOWNTOWN L.A.  SUNNY     65  28  24 CALM      30.17R
6HR MIN TEMP:  46; 6HR MAX TEMP:  65;

L.A. AIRPORT   SUNNY     66  26  22 N7        30.18R
6HR MIN TEMP:  48; 6HR MAX TEMP:  66;

SAN DIEGO      SUNNY     63  28  26 NW5       30.18R
6HR MIN TEMP:  47; 6HR MAX TEMP:  63;

BURBANK        SUNNY     62  26  25 CALM      30.19R
6HR MIN TEMP:  42; 6HR MAX TEMP:  62;

ONTARIO        MOSUNNY   63  27  25 W8        30.18R
6HR MIN TEMP:  41; 6HR MAX TEMP:  63;

RIVERSIDE      SUNNY     63  29  27 CALM      30.20R
6HR MIN TEMP:  40; 6HR MAX TEMP:  63;

PALM SPRINGS   SUNNY     67  29  24 E3        30.25R
6HR MIN TEMP:  50; 6HR MAX TEMP:  68;

EL CENTRO NAS  MOSUNNY   64  17  16 VRB3      30.23S
6HR MIN TEMP:  37; 6HR MAX TEMP:  64;

IMPERIAL       SUNNY     62  21  20 N5        30.22R
6HR MIN TEMP:  39; 6HR MAX TEMP:  62;

BLYTHE         SUNNY     57  23  26 E7        30.24R
6HR MIN TEMP:  40; 6HR MAX TEMP:  57;

NEEDLES        SUNNY     60  25  26 N12       30.28R
6HR MIN TEMP:  45; 6HR MAX TEMP:  60;

$$

NVZ020-UTZ003-231900-
SOUTHERN NEVADA-UTAH

CITY           SKY/WX    TMP DP  RH WIND       PRES   REMARKS
LAS VEGAS      SUNNY     50  25  37 CALM      30.33S
6HR MIN TEMP:  39; 6HR MAX TEMP:  50;

SALT LAKE CITY PTSUNNY   36  23  59 S8        30.38R WCI  30
6HR MIN TEMP:  30; 6HR MAX TEMP:  37;

$$

NMZ009-TXZ055-231900-
NEW MEXICO-WEST TEXAS

CITY           SKY/WX    TMP DP  RH WIND       PRES   REMARKS
ALBUQUERQUE    MOSUNNY   33  10  38 N7        30.32S WCI  27
6HR MIN TEMP:  20; 6HR MAX TEMP:  34;

EL PASO        SUNNY     47   7  19 N14       30.25F
6HR MIN TEMP:  27; 6HR MAX TEMP:  47;

$$


........................KEY........................
SKY/WX - SKY CONDITION/WEATHER
TMP    - TEMPERATURE IN FAHRENHEIT
DP     - DEW POINT IN FAHRENHEIT
RH     - RELATIVE HUMIDITY IN PERCENT
WIND   - DIRECTION AND SPEED IN MILES PER HOUR (MPH)
VRB    - VARIABLE WIND DIRECTION
PRES   - MEAN SEA LEVEL PRESSURE IN INCHES OF MERCURY
         F - FALLING PRESSURE   R - RISING PRESSURE
         S - STEADY PRESSURE
VSB    - VISIBILITY IN MILES
HX     - HEAT INDEX IN FAHRENHEIT
WCI    - WIND CHILL INDEX IN FAHRENHEIT
TC     - TEMPERATURE IN CELSIUS WHICH IS ALSO KNOWN AS
         TEMPERATURE IN CENTIGRADE
AFB    - AIR FORCE BASE
         LUKE AFB IS LUKE AIR FORCE BASE
         DAVIS-MONTHAN IS DAVIS-MONTHAN AIR FORCE BASE
NAS    - NAVAL AIR STATION
         EL CENTRO NAS IS EL CENTRO NAVAL AIR STATION
N/A    - NOT AVAILABLE





USA.gov is the U.S. government's official web portal to all federal, state and local government web resources and services.